Flag for U.S.A. Weather past 2 weeks in Tampa, Florida, U.S.A.

66 °F


Feels Like: 66 °F
Forecast: 65 / 82 °F
Wind: 8 mph from Northeast

Location: Tampa, Peter O Knight Airport

Current Time: Nov 30, 2015 at 3:51:36 AM

Latest Report: Nov 30, 2015 at 2:55 AM

Visibility: 10 mi

Pressure: 30.05 "Hg

Humidity: 94%

Dew point: 64 °F

Location of TampaLocation

Historic Weather in Tampa — Graph


Tampa temperature yesterday

Maximum temperature yesterday: 82 °F (at 12:55 PM)
Minimum temperature yesterday: 64 °F (at 2:55 AM)
Average temperature yesterday: 73 °F

Past Weeks' High & Low Weather Summary

High90 °F (Nov 18, 2:15 PM)100% (Nov 19, 7:55 PM)30.38 "Hg (Nov 19, 7:55 PM)
Low50 °F (Nov 23, 6:55 AM)27% (Nov 23, 1:15 PM)29.83 "Hg (Nov 22, 2:55 AM)
Average73 °F76%30.12 "Hg
* Reported Nov 15 2:15 AM — Nov 30 2:15 AM, Tampa, Weather by CustomWeather, © 2015

Note: Actual official high and low records may vary slightly from our data, if they occured in-between our weather recording intervals... More about our weather records


Tampa weather history for previous 24 hours

Time TempWeatherWind HumidityBarometerVisibility
2:15 AM
Mon, Nov 30
66 °FClear.8 mph94%30.06 "Hg10 mi
1:55 AM66 °FClear.8 mph94%30.06 "Hg10 mi
1:35 AM66 °FClear.7 mph94%30.06 "Hg10 mi
12:35 AM68 °FClear.8 mph88%30.07 "Hg10 mi
12:15 AM68 °FClear.6 mph88%30.07 "Hg10 mi
11:55 PM
Sun, Nov 29
68 °FClear.7 mph94%30.07 "Hg10 mi
11:35 PM68 °FClear.8 mph94%30.08 "Hg10 mi
11:15 PM68 °FClear.7 mph94%30.09 "Hg10 mi
10:35 PM68 °FClear.7 mph94%30.09 "Hg10 mi
10:15 PM70 °FClear.8 mph88%30.09 "Hg10 mi
9:55 PM70 °FClear.9 mph88%30.09 "Hg10 mi
9:15 PM70 °FClear.8 mph94%30.10 "Hg10 mi
7:35 PM73 °FPassing clouds.10 mph83%30.08 "Hg10 mi
7:15 PM73 °FClear.9 mph83%30.08 "Hg10 mi
6:35 PM73 °FClear.9 mph83%30.06 "Hg10 mi
5:55 PM77 °FClear.10 mph69%30.05 "Hg10 mi
5:15 PM79 °FSunny.13 mph65%30.05 "Hg10 mi
4:55 PM79 °FSunny.8 mph65%30.04 "Hg10 mi
4:35 PM79 °FScattered clouds.10 mph65%30.04 "Hg10 mi
3:55 PM82 °FSunny.8 mph55%30.04 "Hg10 mi
3:35 PM82 °FSunny.8 mph55%30.04 "Hg10 mi
3:15 PM82 °FSunny.10 mph55%30.04 "Hg10 mi
2:55 PM81 °FScattered clouds.6 mph58%30.05 "Hg10 mi
2:35 PM82 °FScattered clouds.10 mph55%30.05 "Hg10 mi
2:15 PM82 °FScattered clouds.10 mph55%30.06 "Hg10 mi
1:55 PM82 °FScattered clouds.12 mph55%30.07 "Hg10 mi
1:35 PM81 °FScattered clouds.9 mph58%30.07 "Hg10 mi
1:15 PM82 °FScattered clouds.8 mph55%30.09 "Hg10 mi
12:55 PM82 °FBroken clouds.13 mph55%30.10 "Hg10 mi
12:35 PM81 °FCloudy.9 mph58%30.11 "Hg10 mi
12:15 PM81 °FPartly sunny.12 mph58%30.11 "Hg10 mi
11:55 AM81 °FScattered clouds.7 mph62%30.12 "Hg10 mi
11:35 AM79 °FSunny.10 mph61%30.13 "Hg10 mi
11:15 AM79 °FSunny.9 mph61%30.14 "Hg10 mi
10:55 AM79 °FSunny.10 mph65%30.14 "Hg10 mi
10:35 AM77 °FSunny.9 mph69%30.16 "Hg10 mi
10:15 AM75 °FSunny.7 mph78%30.16 "Hg10 mi
9:55 AM75 °FSunny.5 mph78%30.16 "Hg10 mi
9:35 AM73 °FSunny.8 mph78%30.16 "Hg10 mi
8:55 AM70 °FSunny.7 mph88%30.16 "Hg10 mi
8:35 AM68 °FSunny.6 mph94%30.16 "Hg10 mi
8:15 AM68 °FSunny.8 mph88%30.15 "Hg10 mi
7:55 AM66 °FSunny.7 mph94%30.15 "Hg10 mi
7:35 AM64 °FSunny.7 mph100%30.16 "Hg10 mi
7:15 AM64 °FSunny.8 mph94%30.16 "Hg10 mi
6:55 AM64 °FClear.7 mph94%30.16 "Hg10 mi
6:35 AM64 °FClear.7 mph94%30.15 "Hg10 mi
6:15 AM64 °FClear.10 mph94%30.14 "Hg10 mi
5:55 AM64 °FClear.8 mph94%30.14 "Hg10 mi
5:35 AM64 °FClear.6 mph94%30.14 "Hg10 mi
4:35 AM64 °FClear.6 mph100%30.13 "Hg10 mi
4:15 AM64 °FClear.5 mph100%30.14 "Hg10 mi
3:55 AM64 °FClear.7 mph100%30.14 "Hg10 mi
3:35 AM64 °FClear.7 mph100%30.14 "Hg10 mi
3:15 AM64 °FClear.6 mph100%30.14 "Hg10 mi
Weather by CustomWeather, © 2015

See weather overviewHow to use our weather pages